Location: Harbor Side
(32.6101°N, 117.0814°W)
Time: 06:55:50
(UTC+00:00)

Iridium 2 - Pass Details

Date: 21 April 2021
Orbit: 503 x 512 km, 85.5° (Epoch: 13 May)

Event Time Altitude Azimuth Distance (km) Brightness Sun altitude
Rises 12:40:51 0° 182° (S) 2,589 7.0 -7.0°
Reaches altitude 10° 12:42:57 10° 182° (S) 1,711 6.1 -6.6°
Maximum altitude 12:46:41 89° 264° (W) 512 3.7 -5.8°
Drops below altitude 10° 12:50:28 10° 2° (N) 1,729 6.6 -5.1°
Sets 12:52:35 0° 3° (N) 2,620 7.6 -4.7°
